| time (UTC) | temp F | wind direction | speed knots | gust knots | rain 1hr in | rain 24hr in | rain mn in | humidity % | barometer mb |
| 20260507151103 | 62 | 331 | 6.1 | 11.3 | 0.00 | 0.01 | 0.00 | 43 | 1011.4 |
| 20260507150541 | 62 | 334 | 3.5 | 9.6 | 0.00 | 0.01 | 0.00 | 46 | 1011.5 |
| 20260507150040 | 62 | 22 | 0.9 | 7.8 | 0.00 | 0.01 | 0.00 | 44 | 1011.5 |
| 20260507145534 | 61 | 10 | 1.7 | 7.8 | 0.00 | 0.09 | 0.00 | 42 | 1011.7 |
| 20260507145030 | 61 | 5 | 2.6 | 7.8 | 0.00 | 0.09 | 0.00 | 47 | 1011.7 |
| 20260507144605 | 61 | 20 | 1.7 | 10.4 | 0.00 | 0.09 | 0.00 | 41 | 1011.8 |
| 20260507144045 | 61 | 311 | 7.0 | 11.3 | 0.00 | 0.09 | 0.00 | 46 | 1011.9 |
| 20260507143543 | 60 | 298 | 4.3 | 12.2 | 0.00 | 0.09 | 0.00 | 43 | 1012.0 |
| 20260507143043 | 60 | 329 | 3.5 | 12.2 | 0.00 | 0.09 | 0.00 | 46 | 1012.0 |
| 20260507142541 | 59 | 20 | 1.7 | 5.2 | 0.00 | 0.09 | 0.00 | 42 | 1012.1 |
| 20260507142042 | 59 | 343 | 1.7 | 5.2 | 0.00 | 0.09 | 0.00 | 45 | 1012.1 |
| 20260507141537 | 59 | 5 | 0.0 | 5.2 | 0.00 | 0.09 | 0.00 | 43 | 1012.0 |
| 20260507141032 | 58 | 360 | 1.7 | 5.2 | 0.00 | 0.09 | 0.00 | 45 | 1012.2 |
| 20260507140552 | 58 | 342 | 1.7 | 3.5 | 0.00 | 0.09 | 0.00 | 45 | 1012.2 |
| 20260507140027 | 57 | 257 | 0.9 | 3.5 | 0.00 | 0.09 | 0.00 | 46 | 1012.3 |
| 20260507135547 | 56 | 278 | 2.6 | 4.3 | 0.00 | 0.17 | 0.00 | 43 | 1012.4 |
| 20260507135046 | 56 | 286 | 0.9 | 4.3 | 0.00 | 0.17 | 0.00 | 47 | 1012.6 |
| 20260507134538 | 56 | 5 | 1.7 | 4.3 | 0.00 | 0.17 | 0.00 | 48 | 1012.6 |
| 20260507134041 | 56 | 37 | 1.7 | 4.3 | 0.00 | 0.17 | 0.00 | 47 | 1012.6 |
| 20260507133534 | 55 | 5 | 1.7 | 4.3 | 0.00 | 0.17 | 0.00 | 48 | 1012.7 |
| 20260507133035 | 55 | 23 | 1.7 | 3.5 | 0.00 | 0.17 | 0.00 | 45 | 1012.7 |
| 20260507132527 | 55 | 309 | 1.7 | 3.5 | 0.00 | 0.17 | 0.00 | 49 | 1012.7 |
| 20260507132035 | 55 | 297 | 0.9 | 3.5 | 0.00 | 0.17 | 0.00 | 49 | 1012.8 |
| 20260507131528 | 54 | 298 | 0.9 | 2.6 | 0.00 | 0.17 | 0.00 | 49 | 1012.7 |
| 20260507131049 | 54 | 342 | 0.9 | 2.6 | 0.00 | 0.17 | 0.00 | 50 | 1012.8 |
| 20260507130539 | 54 | 342 | 0.9 | 3.5 | 0.00 | 0.17 | 0.00 | 52 | 1012.7 |
| 20260507130059 | 54 | 342 | 0.9 | 3.5 | 0.00 | 0.17 | 0.00 | 53 | 1012.7 |
| 20260507125558 | 54 | 14 | 2.6 | 5.2 | 0.00 | 0.19 | 0.00 | 52 | 1012.7 |
| 20260507125033 | 54 | 329 | 2.6 | 5.2 | 0.00 | 0.19 | 0.00 | 52 | 1012.7 |
| 20260507124525 | 54 | 324 | 1.7 | 5.2 | 0.00 | 0.19 | 0.00 | 54 | 1012.6 |
| 20260507124047 | 53 | 348 | 2.6 | 5.2 | 0.00 | 0.19 | 0.00 | 56 | 1012.6 |
| 20260507123541 | 53 | 333 | 3.5 | 5.2 | 0.00 | 0.19 | 0.00 | 54 | 1012.7 |
| 20260507123042 | 53 | 334 | 4.3 | 5.2 | 0.00 | 0.19 | 0.00 | 53 | 1012.6 |
| 20260507122541 | 53 | 326 | 3.5 | 5.2 | 0.00 | 0.19 | 0.00 | 54 | 1012.7 |
| 20260507122038 | 53 | 323 | 1.7 | 5.2 | 0.00 | 0.19 | 0.00 | 57 | 1012.7 |
| 20260507121531 | 53 | 302 | 1.7 | 5.2 | 0.00 | 0.19 | 0.00 | 56 | 1012.7 |
| 20260507121027 | 52 | 288 | 2.6 | 5.2 | 0.00 | 0.19 | 0.00 | 58 | 1012.6 |
| 20260507120543 | 52 | 300 | 1.7 | 4.3 | 0.00 | 0.19 | 0.00 | 58 | 1012.6 |
| 20260507120042 | 52 | 303 | 1.7 | 3.5 | 0.00 | 0.19 | 0.00 | 60 | 1012.6 |
| 20260507115603 | 52 | 321 | 0.9 | 3.5 | 0.00 | 0.21 | 0.00 | 59 | 1012.5 |
| 20260507115101 | 52 | 321 | 1.7 | 4.3 | 0.00 | 0.21 | 0.00 | 59 | 1012.5 |
| 20260507114531 | 52 | 307 | 1.7 | 4.3 | 0.00 | 0.21 | 0.00 | 58 | 1012.6 |
| 20260507114026 | 52 | 323 | 2.6 | 3.5 | 0.00 | 0.21 | 0.00 | 59 | 1012.6 |
| 20260507113540 | 52 | 305 | 1.7 | 3.5 | 0.00 | 0.21 | 0.00 | 59 | 1012.6 |
| 20260507113059 | 52 | 304 | 0.9 | 4.3 | 0.00 | 0.21 | 0.00 | 60 | 1012.5 |
| 20260507112557 | 52 | 327 | 2.6 | 4.3 | 0.00 | 0.21 | 0.00 | 59 | 1012.4 |
| 20260507112035 | 52 | 287 | 1.7 | 2.6 | 0.00 | 0.21 | 0.00 | 60 | 1012.4 |
| 20260507111525 | 51 | 288 | 0.9 | 3.5 | 0.00 | 0.21 | 0.00 | 60 | 1012.4 |
| 20260507111044 | 51 | 288 | 0.9 | 4.3 | 0.00 | 0.21 | 0.00 | 60 | 1012.3 |
| 20260507110541 | 51 | 274 | 2.6 | 4.3 | 0.00 | 0.21 | 0.00 | 59 | 1012.2 |
| 20260507110037 | 51 | 290 | 1.7 | 2.6 | 0.00 | 0.21 | 0.00 | 61 | 1012.0 |
| 20260507105529 | 51 | 275 | 1.7 | 2.6 | 0.00 | 0.22 | 0.00 | 59 | 1012.1 |
| 20260507105025 | 51 | 297 | 1.7 | 2.6 | 0.00 | 0.22 | 0.00 | 59 | 1012.0 |
| 20260507104543 | 51 | 297 | 0.9 | 2.6 | 0.00 | 0.22 | 0.00 | 58 | 1012.0 |
| 20260507104034 | 51 | 297 | 0.9 | 3.5 | 0.00 | 0.22 | 0.00 | 58 | 1011.9 |
| 20260507103530 | 52 | 309 | 1.7 | 3.5 | 0.00 | 0.22 | 0.00 | 58 | 1011.9 |
| 20260507103025 | 52 | 297 | 0.0 | 1.7 | 0.00 | 0.22 | 0.00 | 59 | 1011.8 |
| 20260507102538 | 52 | 297 | 0.9 | 1.7 | 0.00 | 0.22 | 0.00 | 59 | 1011.7 |
| 20260507102041 | 52 | 297 | 0.0 | 2.6 | 0.00 | 0.22 | 0.00 | 58 | 1011.7 |
| 20260507101558 | 52 | 297 | 0.9 | 2.6 | 0.00 | 0.22 | 0.00 | 57 | 1011.6 |
| 20260507101033 | 52 | 289 | 0.9 | 3.5 | 0.00 | 0.22 | 0.00 | 57 | 1011.5 |
| 20260507100525 | 52 | 302 | 0.9 | 3.5 | 0.00 | 0.22 | 0.00 | 56 | 1011.5 |
| 20260507100044 | 52 | 290 | 1.7 | 2.6 | 0.00 | 0.22 | 0.00 | 57 | 1011.6 |
| 20260507095543 | 52 | 271 | 0.9 | 2.6 | 0.00 | 0.22 | 0.00 | 57 | 1011.5 |
| 20260507095104 | 52 | 316 | 0.9 | 5.2 | 0.00 | 0.22 | 0.00 | 56 | 1011.4 |
| 20260507094540 | 52 | 316 | 1.7 | 5.2 | 0.00 | 0.22 | 0.00 | 55 | 1011.4 |
| 20260507094059 | 52 | 316 | 1.7 | 5.2 | 0.00 | 0.22 | 0.00 | 54 | 1011.4 |
| 20260507093534 | 52 | 335 | 3.5 | 7.0 | 0.00 | 0.22 | 0.00 | 54 | 1011.5 |
| 20260507093026 | 52 | 316 | 4.3 | 7.0 | 0.00 | 0.22 | 0.00 | 54 | 1011.5 |
| 20260507092543 | 52 | 325 | 1.7 | 3.5 | 0.00 | 0.22 | 0.00 | 56 | 1011.4 |
| 20260507092034 | 52 | 315 | 0.9 | 3.5 | 0.00 | 0.22 | 0.00 | 56 | 1011.2 |
| 20260507091527 | 52 | 325 | 1.7 | 3.5 | 0.00 | 0.22 | 0.00 | 56 | 1011.2 |
| 20260507091105 | 52 | 306 | 0.9 | 3.5 | 0.00 | 0.22 | 0.00 | 56 | 1011.3 |
| 20260507090541 | 52 | 290 | 0.0 | 1.7 | 0.00 | 0.22 | 0.00 | 57 | 1011.2 |
| 20260507090043 | 52 | 290 | 0.0 | 2.6 | 0.00 | 0.22 | 0.00 | 57 | 1011.1 |
| 20260507085536 | 52 | 327 | 0.9 | 2.6 | 0.00 | 0.22 | 0.00 | 57 | 1011.0 |
| 20260507085030 | 52 | 327 | 1.7 | 4.3 | 0.00 | 0.22 | 0.00 | 56 | 1011.0 |
| 20260507084525 | 52 | 325 | 0.9 | 4.3 | 0.00 | 0.22 | 0.00 | 55 | 1011.0 |
| 20260507084044 | 53 | 322 | 1.7 | 2.6 | 0.00 | 0.22 | 0.00 | 56 | 1010.9 |
| 20260507083602 | 53 | 322 | 0.9 | 2.6 | 0.00 | 0.22 | 0.00 | 55 | 1011.0 |
| 20260507083040 | 53 | 347 | 0.9 | 2.6 | 0.00 | 0.22 | 0.00 | 54 | 1010.8 |
| 20260507082533 | 53 | 347 | 0.0 | 3.5 | 0.00 | 0.22 | 0.00 | 54 | 1010.9 |
| 20260507082028 | 53 | 347 | 0.0 | 3.5 | 0.00 | 0.22 | 0.00 | 54 | 1010.8 |
| 20260507081525 | 53 | 12 | 0.9 | 4.3 | 0.00 | 0.22 | 0.00 | 53 | 1011.0 |
| 20260507081043 | 53 | 5 | 1.7 | 8.7 | 0.00 | 0.22 | 0.00 | 53 | 1010.9 |
| 20260507080541 | 53 | 23 | 3.5 | 8.7 | 0.00 | 0.22 | 0.00 | 53 | 1011.0 |
| 20260507080035 | 53 | 344 | 0.9 | 4.3 | 0.00 | 0.22 | 0.00 | 55 | 1011.0 |
| 20260507075530 | 53 | 341 | 1.7 | 4.3 | 0.00 | 0.22 | 0.00 | 55 | 1011.1 |
| 20260507075027 | 53 | 11 | 1.7 | 5.2 | 0.00 | 0.22 | 0.00 | 56 | 1010.9 |
| 20260507074545 | 53 | 355 | 1.7 | 5.2 | 0.00 | 0.22 | 0.00 | 55 | 1011.0 |
| 20260507074042 | 53 | 351 | 1.7 | 3.5 | 0.00 | 0.22 | 0.00 | 55 | 1011.1 |
| 20260507073535 | 53 | 327 | 1.7 | 4.3 | 0.00 | 0.22 | 0.00 | 55 | 1011.0 |
| 20260507073030 | 53 | 345 | 0.9 | 5.2 | 0.00 | 0.22 | 0.00 | 55 | 1011.0 |
| 20260507072545 | 53 | 5 | 1.7 | 5.2 | 0.00 | 0.22 | 0.00 | 54 | 1011.0 |
| 20260507072044 | 54 | 12 | 1.7 | 7.0 | 0.00 | 0.22 | 0.00 | 55 | 1011.0 |
| 20260507071541 | 54 | 9 | 0.9 | 7.0 | 0.00 | 0.22 | 0.00 | 54 | 1011.0 |
| 20260507071041 | 54 | 355 | 2.6 | 7.8 | 0.00 | 0.22 | 0.00 | 55 | 1010.8 |
| 20260507070533 | 54 | 360 | 3.5 | 7.8 | 0.00 | 0.22 | 0.00 | 55 | 1011.0 |
| 20260507070026 | 54 | 360 | 3.5 | 7.8 | 0.00 | 0.22 | 0.00 | 56 | 1011.1 |
| 20260507065542 | 54 | 5 | 3.5 | 10.4 | 0.00 | 0.22 | 0.00 | 57 | 1011.2 |
| 20260507065041 | 54 | 325 | 3.5 | 10.4 | 0.00 | 0.22 | 0.00 | 58 | 1011.0 |
| 20260507064538 | 54 | 346 | 4.3 | 10.4 | 0.00 | 0.22 | 0.00 | 60 | 1011.0 |
| 20260507064033 | 54 | 14 | 4.3 | 10.4 | 0.00 | 0.22 | 0.00 | 62 | 1010.9 |
| 20260507063527 | 54 | 308 | 5.2 | 10.4 | 0.00 | 0.22 | 0.00 | 64 | 1010.9 |
| 20260507063044 | 55 | 306 | 3.5 | 8.7 | 0.00 | 0.22 | 0.00 | 66 | 1010.9 |
| 20260507062538 | 55 | 5 | 3.5 | 10.4 | 0.00 | 0.22 | 0.00 | 66 | 1011.0 |
| 20260507062054 | 55 | 315 | 5.2 | 10.4 | 0.00 | 0.22 | 0.00 | 67 | 1011.1 |
| 20260507061524 | 55 | 355 | 3.5 | 8.7 | 0.00 | 0.22 | 0.00 | 69 | 1011.1 |
| 20260507061044 | 55 | 325 | 2.6 | 8.7 | 0.00 | 0.22 | 0.00 | 70 | 1011.1 |
| 20260507060601 | 55 | 326 | 3.5 | 8.7 | 0.00 | 0.22 | 0.00 | 69 | 1011.1 |
| 20260507060036 | 55 | 355 | 3.5 | 9.6 | 0.00 | 0.22 | 0.00 | 70 | 1011.0 |
| 20260507055554 | 55 | 350 | 4.3 | 9.6 | 0.00 | 0.22 | 0.00 | 70 | 1011.0 |
| 20260507055031 | 55 | 348 | 4.3 | 8.7 | 0.00 | 0.22 | 0.00 | 70 | 1011.0 |
| 20260507054544 | 55 | 348 | 3.5 | 8.7 | 0.00 | 0.22 | 0.00 | 70 | 1010.9 |
| 20260507054044 | 55 | 336 | 3.5 | 7.8 | 0.00 | 0.22 | 0.00 | 70 | 1010.7 |
| 20260507053543 | 55 | 350 | 2.6 | 7.8 | 0.00 | 0.22 | 0.00 | 70 | 1010.8 |
| 20260507053040 | 55 | 350 | 2.6 | 7.8 | 0.00 | 0.22 | 0.00 | 70 | 1010.9 |
| 20260507052532 | 55 | 34 | 2.6 | 7.0 | 0.00 | 0.22 | 0.00 | 70 | 1010.9 |
| 20260507052025 | 55 | 13 | 3.5 | 7.0 | 0.00 | 0.22 | 0.00 | 70 | 1010.9 |
| 20260507051535 | 55 | 355 | 3.5 | 5.2 | 0.00 | 0.22 | 0.00 | 69 | 1010.8 |
| 20260507051028 | 55 | 5 | 1.7 | 7.0 | 0.00 | 0.22 | 0.00 | 69 | 1010.9 |
| 20260507050540 | 55 | 5 | 3.5 | 7.8 | 0.00 | 0.22 | 0.00 | 68 | 1010.8 |
| 20260507050035 | 55 | 18 | 2.6 | 9.6 | 0.00 | 0.22 | 0.00 | 68 | 1010.8 |
| 20260507045527 | 56 | 360 | 5.2 | 9.6 | 0.00 | 0.22 | 0.00 | 67 | 1010.9 |
| 20260507045047 | 56 | 15 | 4.3 | 12.2 | 0.00 | 0.22 | 0.00 | 68 | 1010.9 |
| 20260507044605 | 56 | 19 | 3.5 | 12.2 | 0.00 | 0.22 | 0.00 | 67 | 1011.0 |
| 20260507044041 | 56 | 342 | 5.2 | 10.4 | 0.00 | 0.22 | 0.00 | 67 | 1010.9 |
| 20260507043559 | 56 | 355 | 3.5 | 10.4 | 0.00 | 0.22 | 0.00 | 67 | 1010.8 |
| 20260507043032 | 56 | 5 | 5.2 | 9.6 | 0.00 | 0.22 | 0.00 | 67 | 1010.8 |
| 20260507042525 | 56 | 350 | 4.3 | 9.6 | 0.00 | 0.22 | 0.00 | 68 | 1010.9 |
| 20260507042039 | 56 | 326 | 3.5 | 10.4 | 0.00 | 0.22 | 0.00 | 68 | 1011.0 |
| 20260507041556 | 56 | 342 | 4.3 | 10.4 | 0.00 | 0.22 | 0.00 | 68 | 1011.1 |
| 20260507041054 | 56 | 9 | 4.3 | 11.3 | 0.00 | 0.22 | 0.00 | 69 | 1011.0 |
| 20260507040524 | 56 | 355 | 5.2 | 13.0 | 0.00 | 0.22 | 0.00 | 69 | 1011.0 |
| 20260507040044 | 56 | 351 | 8.7 | 13.0 | 0.00 | 0.22 | 0.00 | 69 | 1011.2 |
| 20260507035541 | 56 | 333 | 7.0 | 12.2 | 0.00 | 0.22 | 0.22 | 70 | 1011.1 |
| 20260507035040 | 56 | 340 | 5.2 | 12.2 | 0.00 | 0.22 | 0.22 | 70 | 1010.9 |
| 20260507034537 | 56 | 319 | 4.3 | 15.6 | 0.00 | 0.22 | 0.22 | 70 | 1010.8 |
| 20260507034033 | 56 | 337 | 7.8 | 15.6 | 0.00 | 0.22 | 0.22 | 70 | 1010.8 |
| 20260507033550 | 56 | 345 | 7.8 | 14.8 | 0.00 | 0.22 | 0.22 | 71 | 1010.7 |
| 20260507033049 | 56 | 311 | 7.0 | 13.0 | 0.00 | 0.22 | 0.22 | 71 | 1010.8 |
| 20260507032542 | 56 | 327 | 7.8 | 13.0 | 0.00 | 0.22 | 0.22 | 72 | 1010.8 |
| 20260507032036 | 57 | 327 | 7.8 | 12.2 | 0.00 | 0.22 | 0.22 | 73 | 1010.9 |
| 20260507031528 | 57 | 348 | 6.1 | 8.7 | 0.00 | 0.22 | 0.22 | 73 | 1011.0 |
| 20260507031045 | 57 | 343 | 4.3 | 7.8 | 0.00 | 0.22 | 0.22 | 74 | 1011.2 |
| 20260507030539 | 57 | 344 | 1.7 | 7.8 | 0.00 | 0.22 | 0.22 | 75 | 1010.9 |
| 20260507030034 | 57 | 321 | 4.3 | 7.0 | 0.00 | 0.22 | 0.22 | 76 | 1011.2 |
| 20260507025525 | 57 | 347 | 2.6 | 7.0 | 0.00 | 0.22 | 0.22 | 76 | 1010.9 |
| 20260507025105 | 57 | 310 | 4.3 | 7.0 | 0.00 | 0.22 | 0.22 | 76 | 1010.9 |
| 20260507024539 | 57 | 317 | 3.5 | 6.1 | 0.00 | 0.22 | 0.22 | 76 | 1011.0 |
| 20260507024032 | 57 | 281 | 1.7 | 9.6 | 0.00 | 0.22 | 0.22 | 76 | 1011.0 |
| 20260507023525 | 57 | 272 | 3.5 | 9.6 | 0.00 | 0.22 | 0.22 | 76 | 1010.3 |
| 20260507023037 | 57 | 13 | 3.5 | 9.6 | 0.00 | 0.22 | 0.22 | 76 | 1010.6 |
| 20260507022529 | 57 | 338 | 3.5 | 13.9 | 0.00 | 0.22 | 0.22 | 76 | 1010.8 |
| 20260507022048 | 57 | 295 | 3.5 | 13.9 | 0.00 | 0.22 | 0.22 | 76 | 1010.9 |
| 20260507021544 | 57 | 355 | 6.1 | 13.9 | 0.00 | 0.22 | 0.22 | 76 | 1011.0 |
| 20260507021041 | 57 | 324 | 8.7 | 13.9 | 0.00 | 0.22 | 0.22 | 76 | 1010.8 |
| 20260507020541 | 57 | 291 | 6.1 | 13.9 | 0.00 | 0.22 | 0.22 | 76 | 1010.9 |
| 20260507020040 | 57 | 321 | 9.6 | 15.6 | 0.00 | 0.22 | 0.22 | 76 | 1010.5 |
| 20260507015600 | 58 | 307 | 11.3 | 15.6 | 0.00 | 0.22 | 0.22 | 76 | 1010.4 |
| 20260507015057 | 58 | 323 | 8.7 | 14.8 | 0.00 | 0.22 | 0.22 | 76 | 1010.4 |
| 20260507014533 | 58 | 331 | 7.8 | 12.2 | 0.00 | 0.22 | 0.22 | 77 | 1010.4 |
| 20260507014024 | 58 | 299 | 7.0 | 14.8 | 0.00 | 0.22 | 0.22 | 77 | 1010.3 |
| 20260507013538 | 58 | 306 | 7.0 | 14.8 | 0.00 | 0.22 | 0.22 | 76 | 1010.5 |
| 20260507013041 | 58 | 315 | 5.2 | 10.4 | 0.00 | 0.22 | 0.22 | 77 | 1010.5 |
| 20260507012533 | 58 | 304 | 2.6 | 7.0 | 0.00 | 0.22 | 0.22 | 77 | 1010.4 |
| 20260507012026 | 58 | 290 | 3.5 | 7.8 | 0.00 | 0.22 | 0.22 | 76 | 1010.6 |
| 20260507011544 | 58 | 288 | 5.2 | 7.8 | 0.00 | 0.22 | 0.22 | 76 | 1010.6 |
| 20260507011043 | 59 | 300 | 3.5 | 8.7 | 0.00 | 0.22 | 0.22 | 76 | 1010.5 |
| 20260507010540 | 59 | 279 | 2.6 | 9.6 | 0.00 | 0.22 | 0.22 | 76 | 1010.5 |
| 20260507010034 | 59 | 299 | 5.2 | 9.6 | 0.00 | 0.22 | 0.22 | 76 | 1010.5 |
| 20260507005525 | 59 | 284 | 3.5 | 7.8 | 0.00 | 0.22 | 0.22 | 76 | 1010.7 |
| 20260507005104 | 59 | 260 | 3.5 | 7.8 | 0.00 | 0.22 | 0.22 | 76 | 1010.9 |
| 20260507004535 | 59 | 282 | 4.3 | 7.8 | 0.00 | 0.22 | 0.22 | 75 | 1010.6 |
| 20260507004029 | 59 | 284 | 4.3 | 8.7 | 0.00 | 0.22 | 0.22 | 76 | 1010.5 |
| 20260507003545 | 60 | 259 | 4.3 | 11.3 | 0.00 | 0.22 | 0.22 | 75 | 1010.5 |
| 20260507003043 | 60 | 294 | 4.3 | 11.3 | 0.00 | 0.22 | 0.22 | 75 | 1010.4 |
| 20260507002540 | 60 | 286 | 5.2 | 10.4 | 0.00 | 0.22 | 0.22 | 75 | 1010.2 |
| 20260507002041 | 60 | 298 | 6.1 | 10.4 | 0.00 | 0.22 | 0.22 | 75 | 1010.0 |
| 20260507001533 | 60 | 295 | 5.2 | 9.6 | 0.00 | 0.22 | 0.22 | 75 | 1010.1 |
| 20260507001032 | 60 | 306 | 2.6 | 10.4 | 0.00 | 0.22 | 0.22 | 76 | 1009.9 |
| 20260507000527 | 61 | 329 | 4.3 | 12.2 | 0.00 | 0.22 | 0.22 | 75 | 1010.0 |
| 20260507000045 | 61 | 282 | 6.1 | 12.2 | 0.00 | 0.22 | 0.22 | 76 | 1010.1 |
| 20260506235540 | 61 | 292 | 6.1 | 12.2 | 0.00 | 0.22 | 0.22 | 75 | 1010.0 |
| 20260506235040 | 61 | 295 | 3.5 | 12.2 | 0.00 | 0.22 | 0.22 | 75 | 1009.6 |
| 20260506234525 | 62 | 297 | 6.1 | 13.9 | 0.00 | 0.22 | 0.22 | 75 | 1009.6 |
| 20260506234042 | 62 | 306 | 7.0 | 13.9 | 0.00 | 0.22 | 0.22 | 75 | 1009.1 |
| 20260506233533 | 62 | 323 | 6.1 | 7.8 | 0.00 | 0.22 | 0.22 | 76 | 1009.0 |
| 20260506233049 | 62 | 302 | 2.6 | 8.7 | 0.00 | 0.22 | 0.22 | 76 | 1009.1 |
| 20260506232539 | 62 | 259 | 3.5 | 8.7 | 0.00 | 0.22 | 0.22 | 75 | 1008.9 |
| 20260506232057 | 62 | 258 | 4.3 | 9.6 | 0.00 | 0.22 | 0.22 | 74 | 1008.8 |
| 20260506231528 | 62 | 309 | 4.3 | 9.6 | 0.00 | 0.22 | 0.22 | 75 | 1008.8 |
| 20260506231043 | 63 | 309 | 3.5 | 10.4 | 0.00 | 0.22 | 0.22 | 75 | 1008.8 |
| 20260506230601 | 63 | 294 | 5.2 | 10.4 | 0.00 | 0.22 | 0.22 | 75 | 1008.8 |
| 20260506230059 | 63 | 321 | 5.2 | 8.7 | 0.00 | 0.22 | 0.22 | 75 | 1008.8 |
| 20260506225528 | 63 | 277 | 4.3 | 8.7 | 0.00 | 0.22 | 0.22 | 76 | 1008.8 |
| 20260506225045 | 63 | 305 | 3.5 | 7.8 | 0.00 | 0.22 | 0.22 | 77 | 1008.7 |
| 20260506224544 | 63 | 293 | 1.7 | 7.8 | 0.00 | 0.22 | 0.22 | 77 | 1008.7 |
| 20260506224042 | 63 | 315 | 2.6 | 9.6 | 0.00 | 0.22 | 0.22 | 76 | 1008.6 |
| 20260506223540 | 63 | 282 | 6.1 | 9.6 | 0.00 | 0.22 | 0.22 | 76 | 1008.6 |
| 20260506223039 | 64 | 269 | 3.5 | 11.3 | 0.00 | 0.22 | 0.22 | 76 | 1008.6 |
| 20260506222556 | 64 | 298 | 6.1 | 11.3 | 0.00 | 0.22 | 0.22 | 76 | 1008.4 |
| 20260506222029 | 64 | 295 | 4.3 | 10.4 | 0.00 | 0.22 | 0.22 | 77 | 1008.4 |
| 20260506221548 | 64 | 290 | 5.2 | 10.4 | 0.00 | 0.22 | 0.22 | 77 | 1008.3 |
| 20260506221038 | 64 | 296 | 5.2 | 9.6 | 0.01 | 0.22 | 0.22 | 78 | 1008.4 |
| 20260506220540 | 64 | 304 | 3.5 | 9.6 | 0.01 | 0.22 | 0.22 | 79 | 1008.2 |
| 20260506220036 | 64 | 294 | 4.3 | 10.4 | 0.01 | 0.22 | 0.22 | 79 | 1008.1 |
| 20260506215552 | 64 | 275 | 5.2 | 13.0 | 0.01 | 0.22 | 0.22 | 80 | 1008.1 |
| 20260506215025 | 64 | 296 | 6.1 | 13.0 | 0.01 | 0.22 | 0.22 | 82 | 1008.0 |
| 20260506214542 | 65 | 297 | 4.3 | 11.3 | 0.01 | 0.22 | 0.22 | 84 | 1007.9 |
| 20260506214042 | 65 | 278 | 4.3 | 11.3 | 0.01 | 0.22 | 0.22 | 84 | 1007.8 |
| 20260506213532 | 65 | 273 | 4.3 | 8.7 | 0.01 | 0.22 | 0.22 | 86 | 1007.8 |
| 20260506213027 | 65 | 260 | 3.5 | 9.6 | 0.01 | 0.22 | 0.22 | 86 | 1007.7 |
| 20260506212604 | 65 | 256 | 4.3 | 9.6 | 0.01 | 0.22 | 0.22 | 85 | 1007.6 |
| 20260506212039 | 65 | 239 | 5.2 | 8.7 | 0.01 | 0.22 | 0.22 | 85 | 1007.6 |
| 20260506211530 | 66 | 261 | 3.5 | 9.6 | 0.01 | 0.22 | 0.22 | 84 | 1007.5 |
| 20260506211025 | 66 | 230 | 4.3 | 7.8 | 0.00 | 0.21 | 0.21 | 84 | 1007.3 |
| 20260506210543 | 66 | 269 | 3.5 | 7.8 | 0.00 | 0.21 | 0.21 | 84 | 1007.2 |
| 20260506210038 | 66 | 233 | 1.7 | 7.8 | 0.00 | 0.21 | 0.21 | 84 | 1007.1 |
| 20260506205529 | 66 | 217 | 2.6 | 7.8 | 0.00 | 0.21 | 0.21 | 84 | 1007.1 |
| 20260506205026 | 66 | 229 | 0.9 | 8.7 | 0.00 | 0.21 | 0.21 | 82 | 1007.0 |
| 20260506204543 | 67 | 244 | 4.3 | 8.7 | 0.00 | 0.21 | 0.21 | 82 | 1007.1 |
| 20260506204041 | 67 | 185 | 3.5 | 8.7 | 0.00 | 0.21 | 0.21 | 81 | 1007.0 |
| 20260506203538 | 67 | 240 | 3.5 | 8.7 | 0.00 | 0.21 | 0.21 | 82 | 1007.0 |
| 20260506203043 | 67 | 246 | 2.6 | 6.1 | 0.00 | 0.21 | 0.21 | 82 | 1006.9 |
| 20260506202535 | 67 | 197 | 3.5 | 7.8 | 0.00 | 0.21 | 0.21 | 81 | 1006.8 |
| 20260506202030 | 68 | 128 | 2.6 | 7.8 | 0.00 | 0.21 | 0.21 | 80 | 1006.8 |
| 20260506201547 | 68 | 226 | 1.7 | 8.7 | 0.00 | 0.21 | 0.21 | 80 | 1006.8 |
| 20260506201044 | 68 | 226 | 1.7 | 8.7 | 0.00 | 0.21 | 0.21 | 82 | 1006.8 |
| 20260506200541 | 68 | 215 | 3.5 | 8.7 | 0.00 | 0.21 | 0.21 | 82 | 1006.8 |
| 20260506200058 | 68 | 218 | 3.5 | 8.7 | 0.00 | 0.21 | 0.21 | 81 | 1006.8 |
| 20260506195529 | 68 | 194 | 4.3 | 8.7 | 0.00 | 0.21 | 0.21 | 83 | 1006.9 |
| 20260506195026 | 68 | 246 | 3.5 | 10.4 | 0.00 | 0.21 | 0.21 | 84 | 1007.0 |
| 20260506194603 | 67 | 219 | 2.6 | 10.4 | 0.00 | 0.21 | 0.21 | 84 | 1007.0 |
| 20260506194036 | 67 | 181 | 3.5 | 10.4 | 0.00 | 0.21 | 0.21 | 84 | 1007.0 |
| 20260506193552 | 67 | 191 | 4.3 | 9.6 | 0.00 | 0.21 | 0.21 | 88 | 1007.0 |
| 20260506193026 | 66 | 207 | 3.5 | 10.4 | 0.00 | 0.21 | 0.21 | 89 | 1007.0 |
| 20260506192544 | 66 | 193 | 7.8 | 10.4 | 0.00 | 0.21 | 0.21 | 89 | 1006.9 |
| 20260506192042 | 65 | 171 | 7.8 | 9.6 | 0.00 | 0.21 | 0.21 | 90 | 1006.7 |
| 20260506191539 | 65 | 167 | 6.1 | 7.8 | 0.00 | 0.21 | 0.21 | 90 | 1006.9 |
| 20260506191032 | 65 | 234 | 4.3 | 7.8 | 0.00 | 0.21 | 0.21 | 90 | 1007.1 |
| 20260506190525 | 64 | 198 | 2.6 | 7.8 | 0.00 | 0.21 | 0.21 | 90 | 1007.3 |
| 20260506190045 | 64 | 206 | 5.2 | 7.8 | 0.00 | 0.21 | 0.21 | 89 | 1007.2 |
| 20260506185539 | 64 | 222 | 3.5 | 7.0 | 0.00 | 0.21 | 0.21 | 89 | 1007.3 |
| 20260506185035 | 64 | 200 | 1.7 | 7.8 | 0.00 | 0.21 | 0.21 | 90 | 1007.3 |
| 20260506184532 | 64 | 199 | 1.7 | 7.8 | 0.00 | 0.21 | 0.21 | 89 | 1007.4 |
| 20260506184027 | 64 | 182 | 2.6 | 8.7 | 0.00 | 0.21 | 0.21 | 89 | 1007.5 |
| 20260506183544 | 64 | 178 | 1.7 | 9.6 | 0.00 | 0.21 | 0.21 | 89 | 1007.4 |
| 20260506183044 | 64 | 196 | 3.5 | 10.4 | 0.00 | 0.21 | 0.21 | 89 | 1007.6 |
| 20260506182542 | 64 | 218 | 3.5 | 10.4 | 0.00 | 0.21 | 0.21 | 89 | 1007.7 |
| 20260506182037 | 64 | 213 | 6.1 | 9.6 | 0.00 | 0.21 | 0.21 | 88 | 1007.6 |
| 20260506181530 | 64 | 182 | 3.5 | 9.6 | 0.00 | 0.21 | 0.21 | 88 | 1007.6 |
| 20260506181025 | 65 | 211 | 3.5 | 9.6 | 0.00 | 0.21 | 0.21 | 87 | 1007.7 |
| 20260506180542 | 65 | 266 | 3.5 | 9.6 | 0.00 | 0.21 | 0.21 | 86 | 1007.7 |
| 20260506175535 | 65 | 204 | 5.2 | 11.3 | 0.00 | 0.21 | 0.21 | 84 | 1007.5 |
| 20260506175026 | 65 | 233 | 6.1 | 12.2 | 0.00 | 0.21 | 0.21 | 84 | 1007.5 |
| 20260506174542 | 65 | 215 | 5.2 | 12.2 | 0.00 | 0.21 | 0.21 | 84 | 1007.4 |
| 20260506174038 | 65 | 200 | 5.2 | 9.6 | 0.00 | 0.21 | 0.21 | 84 | 1007.3 |
| 20260506173531 | 65 | 192 | 6.1 | 11.3 | 0.00 | 0.21 | 0.21 | 85 | 1007.4 |
| 20260506173026 | 65 | 186 | 5.2 | 11.3 | 0.00 | 0.21 | 0.21 | 85 | 1007.4 |
| 20260506172542 | 65 | 198 | 7.0 | 11.3 | 0.00 | 0.21 | 0.21 | 85 | 1007.3 |
| 20260506172039 | 65 | 192 | 6.1 | 11.3 | 0.00 | 0.21 | 0.21 | 85 | 1007.3 |
| 20260506171532 | 65 | 179 | 5.2 | 12.2 | 0.00 | 0.21 | 0.21 | 85 | 1007.4 |
| 20260506171025 | 64 | 185 | 6.1 | 11.3 | 0.00 | 0.21 | 0.21 | 85 | 1007.3 |
| 20260506170544 | 64 | 196 | 8.7 | 11.3 | 0.00 | 0.21 | 0.21 | 85 | 1007.3 |
| 20260506170044 | 64 | 196 | 6.1 | 11.3 | 0.00 | 0.21 | 0.21 | 86 | 1007.3 |
| 20260506165537 | 64 | 188 | 6.1 | 11.3 | 0.00 | 0.21 | 0.21 | 86 | 1007.3 |
| 20260506165033 | 64 | 210 | 5.2 | 10.4 | 0.00 | 0.21 | 0.21 | 86 | 1007.3 |
| 20260506164525 | 63 | 182 | 6.1 | 10.4 | 0.00 | 0.21 | 0.21 | 87 | 1007.5 |
| 20260506164045 | 63 | 219 | 5.2 | 9.6 | 0.00 | 0.21 | 0.21 | 87 | 1007.5 |
| 20260506163540 | 63 | 188 | 4.3 | 10.4 | 0.00 | 0.21 | 0.21 | 87 | 1007.4 |
| 20260506163036 | 63 | 186 | 5.2 | 10.4 | 0.00 | 0.21 | 0.21 | 87 | 1007.4 |
| 20260506162528 | 63 | 223 | 4.3 | 10.4 | 0.00 | 0.21 | 0.21 | 87 | 1007.5 |
| 20260506162047 | 63 | 229 | 4.3 | 10.4 | 0.00 | 0.21 | 0.21 | 87 | 1007.4 |
| 20260506161546 | 63 | 215 | 3.5 | 11.3 | 0.00 | 0.21 | 0.21 | 87 | 1007.4 |
| 20260506161045 | 63 | 200 | 7.8 | 11.3 | 0.00 | 0.21 | 0.21 | 87 | 1007.4 |
| 20260506160542 | 63 | 220 | 7.0 | 12.2 | 0.00 | 0.21 | 0.21 | 88 | 1007.5 |
| 20260506160045 | 63 | 199 | 7.8 | 18.2 | 0.00 | 0.21 | 0.21 | 88 | 1007.4 |
| 20260506155538 | 63 | 184 | 9.6 | 18.2 | 0.00 | 0.21 | 0.21 | 88 | 1007.3 |
| 20260506155040 | 63 | 175 | 11.3 | 18.2 | 0.00 | 0.21 | 0.21 | 88 | 1007.3 |
| 20260506154541 | 63 | 196 | 9.6 | 17.4 | 0.00 | 0.21 | 0.21 | 90 | 1007.3 |
| 20260506154037 | 62 | 162 | 12.2 | 18.2 | 0.00 | 0.21 | 0.21 | 90 | 1007.2 |
| 20260506153556 | 62 | 184 | 8.7 | 14.8 | 0.00 | 0.21 | 0.21 | 91 | 1006.9 |
| 20260506153031 | 62 | 190 | 9.6 | 13.9 | 0.01 | 0.21 | 0.21 | 91 | 1007.0 |
| 20260506152525 | 62 | 178 | 7.8 | 13.9 | 0.02 | 0.21 | 0.21 | 91 | 1007.1 |
| 20260506152044 | 62 | 180 | 11.3 | 13.9 | 0.04 | 0.21 | 0.21 | 91 | 1007.0 |
| 20260506151544 | 62 | 180 | 8.7 | 17.4 | 0.05 | 0.21 | 0.21 | 91 | 1007.1 |